Regional Weather Roundup
Issued by NWS

Home | Current Version | Previous Version | Graphics & Text | Print | Product List | Glossary On
Versions: 1 2 3 4 5 6 7 8 9 10 11 12 13 14 15 16 17 18 19 20 21 22 23 24 25 26 27 28 29 30 31 32 33 34 35 36 37 38 39 40 41 42 43 44 45 46 47 48 49 50
000
ASUS43 KDMX 270206
RWRIA

WEATHER ROUNDUP FOR IOWA
NATIONAL WEATHER SERVICE DES MOINES IA
900 PM CDT MON JUN 26 2017

NOTE: "FAIR" INDICATES FEW OR NO CLOUDS BELOW 12,000 FEET WITH NO
SIGNIFICANT WEATHER AND/OR OBSTRUCTIONS TO VISIBILITY.

* - THESE STATIONS ARE NOT NWS STATIONS...THUS NOT UNDER NWS
QUALITY CONTROL.  THEY ALSO DO NOT REPORT WEATHER SUCH
AS PRECIPITATION OR FOG.

IAZ001>003-012>014-020>022-031>034-043>046-270300-
   NORTHWEST IOWA

CITY           SKY/WX    TMP DP  RH WIND       PRES   REMARKS
CARROLL *      CLEAR     63  46  55 NE6       30.12S
CHEROKEE *     CLEAR     63  44  49 NE3       30.14R
DENISON *      CLEAR     64  46  52 NE5       30.14S
LE MARS *      CLEAR     64  45  48 CALM      30.14S
ORANGE CITY *  CLEAR     66  43  42 CALM      30.14S
SHELDON *      CLEAR     63  48  59 NE3       30.13S
SIOUX CITY     CLEAR     67  42  40 NE6       30.13R
SPENCER        CLEAR     64  44  48 NE6       30.14S
STORM LAKE *   CLEAR     63  41  45 N5        30.14S
$$

IAZ055>058-069>071-079>083-090>094-270300-
   SOUTHWEST IOWA

CITY           SKY/WX    TMP DP  RH WIND       PRES   REMARKS
ATLANTIC *     CLEAR     66  50  55 NE5       30.11S
AUDUBON *      CLEAR     61  52  72 CALM      30.14R
CLARINDA *     PTCLDY    66  61  82 CALM      30.13R
COUNCIL BLFS * CLEAR     66  52  59 E5        30.11S
CRESTON *      CLEAR     63  52  67 NE7       30.13R
HARLAN  *      CLEAR     64  50  59 N3        30.15S
LAMONI         MOCLDY    67  56  67 CALM      30.10R
RED OAK *      CLEAR     66  55  68 NE3       30.11R
SHENANDOAH *   CLEAR     66  63  88 SE3       30.11S
$$

IAZ047>049-059>061-072>074-084-270300-
   CENTRAL IOWA

CITY           SKY/WX    TMP DP  RH WIND       PRES   REMARKS
AMES           CLEAR     64  44  48 N6        30.12R
ANKENY *       CLEAR     63  46  55 NE3       30.12S
BOONE *        CLEAR     63  46  55 N5        30.12S
CHARITON *     CLEAR     64  54  68 N7        30.11R
DES MOINES     PTCLDY    68  42  38 N6        30.11S
GRINNELL*      CLEAR     62  43  49 N6        30.13R
KNOXVILLE *    CLEAR     66  45  45 N5        30.10R
MARSHALLTOWN   CLEAR     62  44  51 N6        30.11S
NEWTON *       CLEAR     64  43  45 N5        30.12R
PELLA *        CLEAR     62  47  57 CALM      30.12R
PERRY *          N/A     64  47  54 NE3       30.12S
$$

IAZ004>006-015-016-023>025-035-036-270300-
   NORTH CENTRAL IOWA

CITY           SKY/WX    TMP DP  RH WIND       PRES   REMARKS
ALGONA *       CLEAR     63  45  51 NE5       30.13F
CLARION *        N/A     61  46  59 NE5       30.13S
ESTHERVILLE    CLEAR     62  44  51 N5        30.13F
FORT DODGE *   CLEAR     63  41  45 NE3       30.14S
MASON CITY     CLEAR     61  42  49 NW5       30.14S
FOREST CITY *    N/A     63  30  29 CALM      30.13S
WEBSTER CITY * CLEAR     59  48  67 N5        30.11S
IOWA FALLS *     N/A     64  44  48 N3        30.14R
$$

IAZ007>011-017>019-026>030-037>042-050>054-066-270300-
   NORTHEAST IOWA

CITY           SKY/WX    TMP DP  RH WIND       PRES   REMARKS
CEDAR RAPIDS   CLEAR     61  45  55 N7        30.11R
CHARLES CITY * CLEAR     63  45  51 NW5       30.12S
CLINTON *      CLEAR     59  46  62 N6        30.10S
DECORAH *      CLEAR     61  45  55 CALM      30.10S
DUBUQUE        CLEAR     59  44  57 NW3       30.11R
MONTICELLO *   CLEAR     59  46  63 NW3       30.11R
OELWEIN *      CLEAR     61  46  59 N5        30.12S
WATERLOO       CLEAR     62  45  53 CALM      30.10S
$$

IAZ064-065-067-068-078-270300-
   EAST CENTRAL IOWA

CITY           SKY/WX    TMP DP  RH WIND       PRES   REMARKS
DAVENPORT      CLEAR     59  46  62 N7        30.10R
IOWA CITY      CLEAR     66  44  45 N8        30.12R
MT. PLEASANT * MOCLDY    64  52  64 N5        30.10R
MUSCATINE *    CLEAR     63  46  55 N6        30.10R
QUAD CITIES    CLEAR     66  42  41 N6        30.09R
$$

IAZ062-063-075>077-085>089-095>099-270300-
   SOUTHEAST IOWA

CITY           SKY/WX    TMP DP  RH WIND       PRES   REMARKS
BURLINGTON     CLEAR     59  57  93 NW3       30.08S
FAIRFIELD *    PTCLDY    61  50  67 N8        30.10R
FORT MADISON * PTCLDY    64  55  72 CALM      30.10R
KEOKUK *       PTCLDY    64  55  72 CALM      30.08S
OSKALOOSA *      N/A     60  49  66 N5        30.11R
CENTERVILLE *    N/A     63  54  72 CALM      30.12R
OTTUMWA        PTCLDY    63  49  60 N6        30.10R
WASHINGTON *   CLEAR     61  46  59 N8        30.11R
$$

ABBREVIATIONS USED IN REMARKS
   TC - TEMPERATURES IN CELSIUS
  WCI - WIND CHILL INDEX
   HX - HEAT INDEX
  VSB - VISIBILITY
$$





USA.gov is the U.S. government's official web portal to all federal, state and local government web resources and services.